Location: Bremen
(53.0793°N, 8.8017°E)
Time: 10:54:16
(UTC+02:00)

Transit 2A Rocket - Pass Details

Date: 24 June 2024
Orbit: 582 x 910 km, 66.7° (Epoch: 19 July)

Event Time Altitude Azimuth Distance (km) Brightness Sun altitude
Rises 00:04:05 0° 267° (W) 3,253 8.5 -11.4°
Reaches altitude 10° 00:06:45 10° 279° (W) 2,382 7.9 -11.5°
Maximum altitude 00:11:29 28° 338° (NNW) 1,545 7.5 -11.8°
Drops below altitude 10° 00:16:30 10° 36° (NE) 2,547 8.2 -12.0°
Sets 00:19:28 0° 48° (NE) 3,519 8.8 -12.1°
